sat.trackr.live / text

‹ back to catalog

STARLINK-6135

NORAD 56539 · 2023-065AN

PAYLOAD ACTIVE UNKNOWN

§ Identity

Operator
Country
US
Launch date
2023-05-14
Launch site
AFETR
Launch vehicle
Mass (kg)
RCS (m²)

Purposes: comms

External: N2YO · Heavens-Above · Gunter

§ Orbital elements

Epoch: 2026-09-20T13:05:48.546528Z

Period
94.27 min
Inclination
43.0006°
Eccentricity
0.0000411
Mean motion
15.27573667 rev/d
Perigee alt
482.8 km
Apogee alt
483.4 km
Semi-major
6,861.2 km
B*
4.6901e-5
RAAN
206.4846°
Arg perigee
245.1954°
Mean anomaly
114.8855°
Rev number
18,623

§ Raw data

STARLINK-61351 56539U 23065AN  26263.54570077  .00001029  00000+0  46901-4 0  99932 56539  43.0006 206.4846 0000411 245.1954 114.8855 15.27573667186230

JSON: /api/v1/satellites/56539 · /tle

For live sub-satellite position, see the globe view (requires WebGL).

§ Visibility from observer

Set your observer location to see the next 7 days of passes ≥ 10°. The values pass through the URL so the page stays shareable.

No JS? Fill the form by hand. The geolocation button needs JavaScript.